Location: Great Falls
(47.5000°N, 111.3000°W)
Time: 00:44:27
(UTC-06:00)

OTV 5 (USA 277) - Visible Passes

Search period start: 20 August 2018 00:00
Search period end: 30 August 2018 00:00
Orbit: 322 x 329 km, 54.5° (Epoch: 19 August)

Date Brightness Start Highest point End Pass type
(mag) Time Alt. Az. Time Alt. Az. Time Alt. Az.
20 Aug ? 21:09:52 10° SW 21:12:35 51° SE 21:15:19 10° ENE visible
20 Aug ? 22:44:43 10° W 22:47:12 28° NNW 22:48:21 21° NNE visible
21 Aug ? 21:27:07 10° WSW 21:29:53 65° NNW 21:32:40 10° NE visible
21 Aug ? 23:02:33 10° WNW 23:04:47 21° N 23:05:13 20° N visible
22 Aug ? 21:44:44 10° W 21:47:19 33° NNW 21:49:55 10° NE visible
22 Aug ? 23:20:18 10° NW 23:21:54 18° NNW 23:21:54 18° NNW visible
23 Aug ? 22:02:33 10° WNW 22:04:52 23° NNW 22:07:11 10° NE visible
23 Aug ? 23:37:50 10° NW 23:38:28 14° NNW 23:38:28 14° NNW visible
24 Aug ? 22:20:21 10° NW 22:22:28 19° N 22:23:58 13° NE visible
25 Aug ? 21:02:33 10° WNW 21:04:57 25° NNW 21:07:22 10° NE visible
25 Aug ? 22:37:58 10° NW 22:40:06 19° N 22:40:28 19° NNE visible
26 Aug ? 21:20:23 10° WNW 21:22:33 20° N 21:24:43 10° NE visible
26 Aug ? 22:55:20 10° NW 22:56:56 21° NNW 22:56:56 21° NNW visible
27 Aug ? 21:38:04 10° NW 21:40:10 19° N 21:42:17 10° NE visible
27 Aug ? 23:12:36 10° NW 23:13:24 16° NW 23:13:24 16° NW visible
28 Aug ? 21:55:31 10° NW 21:57:47 22° N 21:58:49 18° NE visible
28 Aug ? 23:29:50 10° NW 23:29:51 10° NW 23:29:51 10° NW visible
29 Aug ? 22:12:47 10° NW 22:15:18 30° NNE 22:15:18 30° NNE visible
